• In Romania
  • List of Countries
  • For 7 days
  • Water Temperature
  • Satellite Maps
  • Weather Map
  • Weather Widgets
  • user-avatar
    Login

    Hourly Weather Klokovo

    Today, 25 September, Tuesday

    Time Temperature Precipitation Wind Pressure Humidity
    00:00 +6°C° 2.3 mm 5 mps 731 mmHg 94%
    01:00 +6°C° 2.3 mm 5 mps 731 mmHg 94%
    02:00 +6°C° 0 mm 4 mps 731 mmHg 93%
    03:00 +6°C° 1.3 mm 5 mps 732 mmHg 92%
    04:00 +5°C° 1.3 mm 6 mps 732 mmHg 92%
    05:00 +5°C° 1.3 mm 7 mps 733 mmHg 91%
    06:00 +5°C° 0.5 mm 7 mps 733 mmHg 90%
    07:00 +5°C° 0.5 mm 7 mps 734 mmHg 89%
    08:00 +5°C° 0.5 mm 7 mps 735 mmHg 87%
    09:00 +5°C° 0.2 mm 7 mps 736 mmHg 84%
    10:00 +6°C° 0.2 mm 7 mps 737 mmHg 81%
    11:00 +6°C° 0.2 mm 7 mps 738 mmHg 78%
    12:00 +6°C° 0.1 mm 7 mps 739 mmHg 76%
    13:00 +8°C° 0.1 mm 6 mps 740 mmHg 73%
    14:00 +8°C° 0.1 mm 6 mps 741 mmHg 71%
    15:00 +8°C° 0 mm 6 mps 741 mmHg 71%
    16:00 +7°C° 0 mm 5 mps 742 mmHg 72%
    17:00 +7°C° 0 mm 5 mps 743 mmHg 73%
    18:00 +6°C° 0 mm 5 mps 744 mmHg 75%
    19:00 +6°C° 0 mm 5 mps 744 mmHg 77%
    20:00 +5°C° 0 mm 5 mps 745 mmHg 79%
    21:00 +4°C° 0 mm 4 mps 746 mmHg 80%
    22:00 +4°C° 0 mm 4 mps 747 mmHg 80%
    23:00 +4°C° 0 mm 4 mps 747 mmHg 81%

    Tomorrow, 26 September, Wednesday

    Time Temperature Precipitation Wind Pressure Humidity
    00:00 +3°C° 0 mm 4 mps 748 mmHg 80%
    01:00 +3°C° 0 mm 4 mps 748 mmHg 79%
    02:00 +1°C° 0 mm 4 mps 749 mmHg 78%
    03:00 +1°C° 0 mm 4 mps 749 mmHg 78%
    04:00 +2°C° 0 mm 3 mps 750 mmHg 78%
    05:00 +1°C° 0 mm 3 mps 750 mmHg 79%
    06:00 +2°C° 0 mm 3 mps 751 mmHg 77%
    07:00 +3°C° 0 mm 3 mps 751 mmHg 75%
    08:00 +4°C° 0 mm 3 mps 751 mmHg 74%
    09:00 +6°C° 0 mm 4 mps 751 mmHg 70%
    10:00 +7°C° 0 mm 4 mps 751 mmHg 67%
    11:00 +10°C° 0 mm 4 mps 751 mmHg 63%
    12:00 +11°C° 0 mm 4 mps 750 mmHg 61%
    13:00 +10°C° 0 mm 5 mps 750 mmHg 58%
    14:00 +12°C° 0 mm 5 mps 750 mmHg 56%
    15:00 +10°C° 0 mm 5 mps 749 mmHg 59%
    16:00 +10°C° 0 mm 4 mps 748 mmHg 62%
    17:00 +8°C° 0 mm 4 mps 747 mmHg 65%
    18:00 +8°C° 0.3 mm 5 mps 747 mmHg 69%
    19:00 +7°C° 0.3 mm 6 mps 746 mmHg 73%
    20:00 +6°C° 0.3 mm 7 mps 745 mmHg 77%
    21:00 +5°C° 1.2 mm 7 mps 743 mmHg 80%
    22:00 +5°C° 1.2 mm 7 mps 742 mmHg 83%
    23:00 +4°C° 1.2 mm 8 mps 741 mmHg 86%

    Day after tomorrow, 27 September, Thursday

    Time Temperature Precipitation Wind Pressure Humidity
    00:00 +5°C° 1.7 mm 8 mps 739 mmHg 87%
    01:00 +5°C° 1.7 mm 7 mps 738 mmHg 88%
    02:00 +5°C° 1.7 mm 7 mps 737 mmHg 89%
    03:00 +6°C° 1.9 mm 7 mps 736 mmHg 90%
    04:00 +7°C° 1.9 mm 6 mps 736 mmHg 90%
    05:00 +8°C° 1.9 mm 6 mps 735 mmHg 91%
    06:00 +8°C° 0.2 mm 6 mps 735 mmHg 88%
    07:00 +8°C° 0.2 mm 6 mps 735 mmHg 85%
    08:00 +8°C° 0.2 mm 5 mps 736 mmHg 82%
    09:00 +8°C° 0.2 mm 6 mps 736 mmHg 77%
    10:00 +9°C° 0.2 mm 6 mps 736 mmHg 73%
    11:00 +9°C° 0.2 mm 7 mps 736 mmHg 68%
    12:00 +9°C° 0.3 mm 7 mps 737 mmHg 68%
    13:00 +8°C° 0.3 mm 7 mps 737 mmHg 69%
    14:00 +8°C° 0.3 mm 7 mps 737 mmHg 69%
    15:00 +8°C° 0.1 mm 6 mps 738 mmHg 71%
    16:00 +7°C° 0.1 mm 5 mps 738 mmHg 74%
    17:00 +6°C° 0.1 mm 4 mps 739 mmHg 76%
    18:00 +6°C° 0 mm 4 mps 739 mmHg 77%
    19:00 +6°C° 0 mm 4 mps 739 mmHg 78%
    20:00 +5°C° 0 mm 4 mps 740 mmHg 79%
    21:00 +5°C° 0 mm 4 mps 740 mmHg 79%
    22:00 +5°C° 0 mm 4 mps 740 mmHg 79%
    23:00 +5°C° 0 mm 4 mps 741 mmHg 79%

    28 September, Friday

    Time Temperature Precipitation Wind Pressure Humidity
    00:00 +4°C° 0 mm 4 mps 741 mmHg 80%
    01:00 +4°C° 0 mm 4 mps 741 mmHg 81%
    02:00 +4°C° 0 mm 4 mps 742 mmHg 82%
    03:00 +4°C° 0 mm 4 mps 741 mmHg 82%
    04:00 +4°C° 0 mm 3 mps 741 mmHg 83%
    05:00 +3°C° 0 mm 3 mps 741 mmHg 84%
    06:00 +4°C° 0.4 mm 3 mps 740 mmHg 85%
    07:00 +4°C° 0.4 mm 3 mps 739 mmHg 86%
    08:00 +4°C° 0.4 mm 3 mps 738 mmHg 88%
    09:00 +5°C° 1.5 mm 4 mps 737 mmHg 89%
    10:00 +7°C° 1.5 mm 5 mps 736 mmHg 90%
    11:00 +8°C° 1.5 mm 6 mps 735 mmHg 91%
    12:00 +8°C° 1.2 mm 6 mps 734 mmHg 90%
    13:00 +9°C° 1.2 mm 5 mps 734 mmHg 89%
    14:00 +9°C° 1.2 mm 5 mps 734 mmHg 87%
    15:00 +8°C° 0.3 mm 5 mps 735 mmHg 88%
    16:00 +6°C° 0.3 mm 5 mps 736 mmHg 88%
    17:00 +5°C° 0.3 mm 5 mps 737 mmHg 88%
    18:00 +3°C° 0 mm 5 mps 738 mmHg 88%
    19:00 +3°C° 0 mm 4 mps 740 mmHg 87%
    20:00 +3°C° 0 mm 4 mps 741 mmHg 87%
    21:00 +1°C° 0 mm 4 mps 742 mmHg 86%
    22:00 +1°C° 0 mm 3 mps 743 mmHg 86%
    23:00 +1°C° 0 mm 3 mps 744 mmHg 85%

    29 September, Saturday

    Time Temperature Precipitation Wind Pressure Humidity
    00:00 0°C° 0 mm 3 mps 745 mmHg 85%
    01:00 0°C° 0 mm 3 mps 746 mmHg 85%
    02:00 0°C° 0 mm 3 mps 746 mmHg 84%
    03:00 -1°C° 0 mm 3 mps 747 mmHg 85%
    04:00 -1°C° 0 mm 3 mps 747 mmHg 86%
    05:00 -1°C° 0 mm 2 mps 748 mmHg 87%
    06:00 +1°C° 0 mm 2 mps 748 mmHg 83%
    07:00 +2°C° 0 mm 2 mps 749 mmHg 79%
    08:00 +3°C° 0 mm 2 mps 749 mmHg 76%
    09:00 +4°C° 0 mm 2 mps 750 mmHg 71%
    10:00 +5°C° 0 mm 2 mps 750 mmHg 66%
    11:00 +7°C° 0 mm 2 mps 751 mmHg 61%
    12:00 +7°C° 0.1 mm 3 mps 751 mmHg 61%
    13:00 +7°C° 0.1 mm 3 mps 751 mmHg 61%
    14:00 +8°C° 0.1 mm 3 mps 751 mmHg 61%
    15:00 +6°C° 0.1 mm 2 mps 751 mmHg 66%
    16:00 +5°C° 0.1 mm 2 mps 751 mmHg 71%
    17:00 +5°C° 0.1 mm 1 mps 752 mmHg 76%
    18:00 +4°C° 0 mm 1 mps 752 mmHg 77%
    19:00 +3°C° 0 mm 1 mps 753 mmHg 79%
    20:00 +2°C° 0 mm 1 mps 753 mmHg 80%
    21:00 +2°C° 0 mm 1 mps 753 mmHg 80%
    22:00 +1°C° 0 mm 1 mps 754 mmHg 79%
    23:00 +1°C° 0 mm 1 mps 754 mmHg 79%

    30 September, Sunday

    Time Temperature Precipitation Wind Pressure Humidity
    00:00 +1°C° 0 mm 1 mps 754 mmHg 78%
    01:00 0°C° 0 mm 1 mps 754 mmHg 78%
    02:00 0°C° 0 mm 1 mps 754 mmHg 78%
    03:00 0°C° 0 mm 1 mps 754 mmHg 78%
    04:00 0°C° 0 mm 1 mps 754 mmHg 79%
    05:00 -2°C° 0 mm 2 mps 754 mmHg 79%
    06:00 +1°C° 0 mm 2 mps 754 mmHg 76%
    07:00 +1°C° 0 mm 3 mps 754 mmHg 73%
    08:00 +2°C° 0 mm 3 mps 754 mmHg 69%
    09:00 +4°C° 0 mm 4 mps 753 mmHg 64%
    10:00 +5°C° 0 mm 4 mps 753 mmHg 60%
    11:00 +7°C° 0 mm 5 mps 752 mmHg 55%
    12:00 +8°C° 0 mm 5 mps 752 mmHg 53%
    13:00 +8°C° 0 mm 5 mps 751 mmHg 52%
    14:00 +9°C° 0 mm 5 mps 751 mmHg 51%
    15:00 +8°C° 0 mm 5 mps 751 mmHg 57%
    16:00 +7°C° 0 mm 4 mps 750 mmHg 62%
    17:00 +7°C° 0 mm 3 mps 750 mmHg 68%
    18:00 +5°C° 0 mm 3 mps 750 mmHg 71%
    19:00 +5°C° 0 mm 3 mps 750 mmHg 73%
    20:00 +4°C° 0 mm 3 mps 750 mmHg 76%
    21:00 +4°C° 0 mm 3 mps 750 mmHg 77%
    22:00 +4°C° 0 mm 3 mps 749 mmHg 78%
    23:00 +4°C° 0 mm 3 mps 749 mmHg 79%
    Show more